Weather History for KCUB - November, 2012

Change the Weather History Date:

Tuesday, November 6, 2012

  Actual Average Record
Temperature  
Mean Temperature 47 °F 59 °F  
Max Temperature 54 °F 70 °F 81 °F (2003)
Min Temperature 39 °F 47 °F 37 °F (1999)
Degree Days  
Heating Degree Days 18 7  
Month to date heating degree days 57 40  
Since 1 July heating degree days 131 129  
Cooling Degree Days 0 1  
Month to date cooling degree days 0 6  
Year to date cooling degree days 2515 2248  
Moisture  
Dew Point 34 °F    
Average Humidity 61    
Maximum Humidity 76    
Minimum Humidity 50    
Precipitation  
Precipitation 0.00 in 0.10 in 0.21 in (2002)
Month to date precipitation 0.10 0.53  
Year to date precipitation 38.23 39.74  
Sea Level Pressure  
Sea Level Pressure 30.01 in    
Wind  
Wind Speed 4 mph (ENE)    
Max Wind Speed 10 mph    
Max Gust Speed 18 mph    
Visibility 10 miles    
Events      
T = Trace of Precipitation, MM = Missing Value Source: NWS Daily Summary

Daily Weather History Graph

Daily Weather History Graph

Search for Another Location

Airport or City:

Trip Planner

Search our weather history database for the weather conditions in past years. The results will help you decide how hot, cold, wet, or windy it might be!

Date:

Astronomy

Nov. 06, 2012 Rise Set
Actual Time 6:48 AM EST 5:26 PM EST
Civil Twilight 6:22 AM EST 5:52 PM EST
Nautical Twilight 5:52 AM EST 6:22 PM EST
Astronomical Twilight 5:23 AM EST 6:51 PM EST
Moon No Moon Rise 12:42 PM EST (11/6)
Length of Visible Light 11h 30m
Length of Day
10h 37m
Waning Gibbous, 53% of the Moon is Illuminated
Nov 6
Waning Gibbous
Nov 6
Last Quarter
Nov 13
New
Nov 20
First Quarter
Nov 28
Full

Hourly Weather History & Observations

Time (EST) Temp. Windchill Dew Point Humidity Pressure Visibility Wind Dir Wind Speed Gust Speed Precip Events Conditions
12:53 AM 48.9 °F - 39.0 °F 69% 30.06 in 10.0 mi Calm Calm - N/A   Clear
1:53 AM 50.0 °F - 37.9 °F 63% 30.05 in 10.0 mi Calm Calm - N/A   Partly Cloudy
2:53 AM 48.9 °F - 37.0 °F 64% 30.03 in 10.0 mi ENE 5.8 mph - N/A   Mostly Cloudy
3:53 AM 48.9 °F - 36.0 °F 61% 30.01 in 10.0 mi ENE 6.9 mph - N/A   Overcast
4:53 AM 48.0 °F - 36.0 °F 63% 30.05 in 10.0 mi Calm Calm - N/A   Overcast
5:53 AM 46.9 °F - 36.0 °F 66% 30.07 in 10.0 mi Variable 3.5 mph - N/A   Overcast
6:53 AM 46.0 °F 41.4 °F 35.1 °F 66% 30.05 in 10.0 mi ENE 9.2 mph - N/A   Overcast
7:53 AM 46.0 °F 44.8 °F 34.0 °F 63% 30.07 in 10.0 mi Variable 3.5 mph - N/A   Overcast
8:53 AM 46.0 °F 42.5 °F 33.1 °F 61% 30.08 in 10.0 mi Variable 6.9 mph - N/A   Mostly Cloudy
9:53 AM 46.9 °F - 32.0 °F 56% 30.08 in 10.0 mi NE 8.1 mph - N/A   Overcast
10:53 AM 48.0 °F - 32.0 °F 54% 30.06 in 10.0 mi Variable 6.9 mph - N/A   Overcast
11:53 AM 50.0 °F - 33.1 °F 52% 30.03 in 10.0 mi ENE 9.2 mph - N/A   Overcast
12:53 PM 53.1 °F - 35.1 °F 50% 29.98 in 10.0 mi ENE 8.1 mph - N/A   Partly Cloudy
1:53 PM 53.1 °F - 35.1 °F 50% 29.96 in 10.0 mi Variable 5.8 mph - N/A   Scattered Clouds
2:53 PM 51.1 °F - 35.1 °F 54% 29.97 in 10.0 mi ENE 4.6 mph - N/A   Overcast
3:53 PM 51.1 °F - 35.1 °F 54% 29.97 in 10.0 mi Variable 4.6 mph - N/A   Overcast
4:53 PM 51.1 °F - 34.0 °F 52% 29.96 in 10.0 mi Variable 5.8 mph - N/A   Mostly Cloudy
5:53 PM 48.0 °F - 34.0 °F 58% 29.97 in 10.0 mi Calm Calm - N/A   Clear
6:53 PM 46.0 °F - 34.0 °F 63% 29.99 in 10.0 mi Calm Calm - N/A   Clear
7:53 PM 44.1 °F - 34.0 °F 68% 29.99 in 10.0 mi Calm Calm - N/A   Clear
8:53 PM 43.0 °F - 33.1 °F 68% 29.98 in 10.0 mi Calm Calm - N/A   Clear
9:53 PM 43.0 °F - 32.0 °F 65% 29.97 in 10.0 mi Calm Calm - N/A   Clear
10:53 PM 42.1 °F - 32.0 °F 67% 29.98 in 10.0 mi Calm Calm - N/A   Clear
11:53 PM 39.0 °F - 33.1 °F 79% 29.96 in 8.0 mi Calm Calm - N/A   Clear